Theta_e
345 346 347 347 347 347 348 347 346 347 346 345 344 344 345 345 345 345 344 342 340 341 342 342 342 342 341 340 338 338 339 339 338 336 334 333 331 332 334 336 337 338 339 339 339 339 339 339 338 338 338 338 338 337 337 336 334 333 332 331 331 331 332 332 332 333 334 334 335 336 336 336 336 336 335 334 334 334 334 335 335 335 335 335 335
346 347 348 348 346 346 347 347 347 347 346 345 344 344 345 346 346 345 345 343 341 340 342 342 343 342 341 341 339 338 339 339 339 338 337 336 333 330 330 334 336 338 339 339 339 340 340 340 339 338 339 338 339 338 338 338 337 336 335 333 332 332 332 332 332 334 334 334 334 335 336 335 335 336 335 335 335 335 336 336 337 337 337 336 336
348 348 349 349 347 347 347 347 348 347 346 346 345 344 345 346 345 345 346 345 343 341 341 341 342 343 342 341 340 339 339 340 339 339 337 337 336 331 328 330 334 338 339 340 340 341 340 340 340 339 340 339 339 339 339 338 338 337 336 336 335 334 334 333 333 334 334 333 334 334 334 333 334 335 335 335 335 336 336 336 336 336 336 336 336
349 349 350 350 348 347 347 347 347 347 347 346 346 345 345 345 344 346 347 346 345 343 341 341 342 343 342 341 340 339 339 340 340 338 338 338 337 336 332 329 331 335 338 339 340 341 341 341 340 340 341 340 339 339 339 339 339 338 338 337 337 336 336 335 335 335 335 334 335 335 334 334 334 334 334 335 336 337 336 336 336 335 335 336 335
349 349 351 350 347 346 346 346 347 347 346 345 345 346 346 345 345 346 347 346 345 343 341 341 342 342 343 342 339 338 339 340 340 338 338 339 338 338 337 334 332 331 333 336 338 340 341 341 341 340 340 340 340 340 340 340 339 339 338 338 338 338 337 337 336 336 336 336 335 335 335 335 335 335 335 336 336 337 336 336 335 336 335 336 335
349 349 350 350 346 345 346 346 346 346 344 344 346 347 346 347 346 347 347 346 344 343 341 339 341 341 342 342 337 335 337 339 340 339 339 340 339 339 339 339 336 331 331 333 335 338 339 340 340 340 340 340 340 340 340 339 339 339 339 339 338 338 339 339 338 337 337 337 337 337 336 336 337 337 337 337 337 336 336 336 335 335 336 336 336
348 348 349 349 347 345 346 346 346 345 344 344 347 348 347 347 347 347 347 345 344 344 341 339 339 340 342 342 338 335 336 339 340 339 340 340 339 339 338 338 338 336 336 333 333 335 337 338 339 340 340 340 340 340 339 339 340 340 339 340 339 339 339 339 339 338 338 337 338 338 338 338 338 338 339 338 337 337 337 336 336 336 336 336 336
349 348 348 347 346 346 346 346 346 345 345 344 346 347 348 346 346 347 346 345 345 345 342 339 339 339 341 340 337 335 336 339 340 340 340 339 338 338 337 337 338 339 339 336 334 333 333 336 338 339 340 340 340 340 340 340 341 341 341 341 340 340 340 340 339 339 338 338 339 339 339 339 338 339 339 338 338 337 337 337 337 337 336 336 336
348 346 345 344 347 347 346 346 345 344 345 344 344 348 349 347 346 345 344 346 346 345 342 340 340 340 341 340 336 335 337 339 341 340 339 339 338 338 337 337 337 337 338 339 337 335 332 332 335 337 339 340 340 340 340 340 340 341 341 341 340 340 340 339 339 339 339 339 339 339 339 339 339 339 339 338 338 337 337 337 337 337 337 337 337
343 341 340 342 346 348 347 346 346 345 345 344 344 347 349 348 347 345 344 347 347 345 343 341 340 341 342 341 338 338 339 339 339 339 339 339 338 338 338 336 335 335 336 337 336 336 336 334 332 333 336 337 338 339 339 339 340 341 340 340 340 340 340 340 340 339 339 339 339 339 339 339 339 340 340 338 338 338 338 338 337 337 337 338 338
338 337 336 339 344 347 348 348 347 347 346 344 344 347 349 348 348 346 345 347 346 344 342 340 341 341 343 342 339 339 339 339 339 338 339 339 339 339 338 337 336 334 332 332 330 330 335 337 334 332 332 333 336 337 338 338 338 338 339 339 339 339 340 340 340 339 339 339 340 339 339 339 339 339 339 339 338 338 338 338 338 338 338 338 337
336 334 333 336 340 344 347 347 348 348 346 344 344 346 348 347 347 346 344 346 345 343 341 341 341 341 342 342 339 338 338 339 338 338 339 339 339 339 338 338 337 335 334 331 326 325 330 336 337 333 331 332 332 334 335 335 335 335 336 337 338 338 339 340 340 339 339 339 339 338 338 338 338 337 337 336 335 334 333 333 333 332 330 329 328
336 333 330 333 338 341 343 344 346 347 345 345 345 346 348 347 345 346 345 346 345 342 340 340 341 341 341 341 339 338 338 339 339 339 339 340 339 339 338 338 336 335 335 331 327 324 326 332 334 333 333 333 332 333 334 334 334 333 333 335 337 337 338 338 338 337 337 337 336 334 333 333 330 329 327 325 323 322 321 321 321 320 318 318 318
336 333 330 331 335 338 339 340 343 346 346 345 345 346 348 346 345 346 346 347 345 342 340 340 340 340 340 339 337 337 338 339 339 339 340 340 339 339 338 338 336 335 336 334 331 327 324 326 328 327 331 334 333 333 334 334 333 331 329 330 333 334 335 335 334 333 332 331 328 325 323 322 320 319 318 318 318 318 318 317 317 317 317 316 316
335 333 331 331 333 336 338 338 341 345 345 345 346 345 346 346 345 346 346 346 344 342 340 340 340 341 340 339 338 336 336 337 339 340 340 340 340 340 339 338 337 336 336 335 334 330 326 325 325 324 328 330 330 331 333 333 330 326 325 325 327 329 330 329 327 327 325 321 319 318 318 319 319 320 320 320 320 320 320 319 319 319 319 318 318
337 333 332 332 332 334 337 338 341 345 345 345 345 345 345 345 345 345 346 346 343 341 342 340 341 340 339 338 337 337 336 336 339 340 340 340 340 340 339 338 337 336 336 335 335 333 331 329 326 326 327 328 328 327 329 332 328 322 321 322 323 324 322 321 321 320 319 319 320 320 321 321 321 321 321 321 321 320 320 320 320 320 320 320 320
338 335 333 334 333 334 336 337 340 344 345 345 346 345 344 345 345 345 346 347 344 341 343 342 340 340 339 337 337 336 335 336 338 339 339 340 340 339 339 338 337 336 336 335 335 334 333 332 329 328 329 327 327 326 325 328 327 322 319 319 319 318 318 318 319 320 321 322 322 322 321 321 321 321 320 320 319 319 319 319 320 320 320 321 321
339 336 334 334 335 335 336 337 339 343 345 346 347 346 346 345 345 346 345 347 347 343 343 343 342 341 339 338 338 336 335 335 338 339 338 339 339 339 339 339 338 336 336 336 335 334 334 333 331 332 332 329 328 326 323 322 322 319 317 317 318 319 320 321 322 323 322 322 321 321 321 320 320 320 319 319 319 319 320 319 319 320 320 320 321
338 337 334 334 335 335 336 338 340 344 345 346 347 346 346 346 345 346 345 346 349 345 341 343 343 341 339 340 341 339 338 337 337 338 337 338 339 339 339 338 338 337 336 336 335 334 334 334 334 335 333 330 329 328 324 321 320 319 320 320 321 322 322 323 323 323 323 321 320 320 320 320 320 320 320 320 319 319 320 319 318 318 318 318 319
337 338 336 334 334 335 336 338 340 344 346 345 346 346 347 347 346 347 346 347 348 345 342 342 343 341 338 340 342 341 340 336 335 337 337 338 339 338 338 337 337 337 337 336 334 333 335 336 336 336 335 332 330 329 327 326 324 323 324 324 324 324 324 324 325 325 324 322 321 321 321 322 321 321 320 320 320 320 320 320 319 319 318 318 317
336 338 337 335 334 335 336 337 339 344 346 345 346 346 346 347 347 348 347 346 348 346 343 342 342 340 338 339 341 341 338 334 335 338 337 337 339 338 337 337 337 337 337 336 334 334 337 337 336 336 336 334 332 331 331 330 329 327 326 325 325 325 325 325 325 325 325 324 323 322 323 323 322 321 321 320 322 323 323 323 323 322 322 321 320
335 336 337 335 335 335 335 337 339 342 345 345 346 346 346 346 347 349 349 347 346 345 344 343 342 341 339 337 339 341 337 335 337 338 336 336 337 338 337 337 337 337 338 336 335 336 338 337 337 337 337 335 334 334 334 333 330 329 328 327 326 326 325 325 325 325 326 325 324 323 323 323 323 322 322 322 324 325 325 326 325 326 325 325 325
334 336 337 336 334 334 334 336 337 340 344 345 346 347 346 346 347 348 349 348 346 343 342 344 343 342 340 336 337 340 338 336 337 337 337 337 336 337 337 337 337 337 338 338 337 337 338 338 337 337 337 336 334 335 336 335 331 329 329 329 328 327 326 326 326 326 326 326 326 325 324 323 323 324 324 324 325 326 326 326 327 326 326 326 326
336 337 339 337 334 334 335 335 336 339 343 344 345 347 347 347 346 347 348 347 345 343 341 342 341 340 340 335 334 339 339 336 336 337 338 337 337 337 336 337 337 338 338 338 338 338 338 338 338 337 338 337 335 334 335 335 333 332 331 330 329 329 328 328 327 327 327 327 327 326 325 324 324 324 325 325 325 326 326 326 326 326 326 326 326
335 336 337 337 334 335 335 336 336 338 342 345 344 345 347 347 347 346 347 347 346 344 343 342 339 337 339 337 333 336 339 338 337 338 339 338 336 337 337 338 339 339 338 338 338 338 338 338 338 337 338 337 337 335 334 335 334 334 333 331 329 330 329 328 328 328 328 328 328 327 327 326 325 324 324 324 325 325 326 326 326 325 325 325 325
334 333 335 337 336 336 336 336 336 336 340 344 345 345 346 347 346 346 347 348 347 345 344 342 339 337 338 339 336 334 336 338 336 337 339 338 336 337 338 339 340 340 339 339 338 339 338 338 337 337 337 337 337 335 334 334 334 334 334 333 331 330 329 327 327 328 328 327 327 327 327 327 326 325 325 324 324 325 325 325 326 325 325 324 324
334 334 335 338 338 337 336 336 337 336 337 342 343 344 346 346 346 345 346 348 348 346 344 342 341 338 336 337 338 336 332 332 332 335 338 337 336 337 338 338 340 340 340 339 339 339 339 339 338 337 337 336 335 335 334 334 334 334 334 334 332 330 329 328 327 326 327 327 327 327 326 326 326 325 325 325 324 324 324 325 325 325 324 323 323
335 336 337 338 338 338 338 337 337 337 337 339 341 342 344 345 344 344 345 347 348 347 345 342 340 339 336 332 333 334 328 326 329 334 336 336 336 337 338 339 340 340 340 340 339 339 339 338 338 337 336 335 335 334 335 335 335 335 335 334 333 331 329 327 327 326 326 327 327 327 326 325 325 324 325 325 324 324 324 325 326 325 325 324 324
334 335 335 337 338 338 338 337 337 338 338 338 339 340 342 343 343 343 343 345 346 346 345 344 341 340 338 332 329 330 327 324 329 332 333 335 337 338 338 340 340 340 340 340 339 337 337 337 337 336 334 333 333 334 335 335 335 335 335 335 335 334 331 329 327 326 326 326 327 326 326 325 325 324 324 324 324 324 324 325 325 326 326 325 325
334 334 335 336 338 337 337 337 337 338 338 338 339 339 340 341 341 342 343 343 344 344 344 343 341 341 340 336 330 327 327 327 328 330 331 336 339 339 340 340 341 341 340 340 337 334 335 336 335 335 333 332 333 335 335 334 336 336 336 336 336 336 335 332 329 326 325 325 326 327 326 325 325 325 324 324 325 324 325 325 326 326 326 326 326
334 334 334 335 338 338 337 336 337 338 338 338 339 339 339 340 340 341 342 342 342 343 343 342 341 340 340 339 335 329 327 330 330 330 332 336 338 340 341 340 340 340 340 340 337 333 332 333 333 334 334 332 333 335 335 334 336 336 336 336 336 336 335 333 329 327 324 324 325 326 325 325 325 325 325 325 325 325 325 325 326 326 327 327 327
333 333 333 333 336 338 337 336 337 337 337 338 337 338 338 338 338 339 339 340 339 340 340 341 341 339 338 338 338 334 329 329 331 332 334 335 336 337 339 340 340 340 339 339 336 331 329 331 331 334 335 335 334 335 335 335 335 336 336 336 336 337 336 333 329 327 324 324 324 325 325 325 325 325 326 326 326 326 326 326 326 327 327 327 327
331 331 331 331 332 335 337 336 335 336 336 336 336 336 337 337 338 338 339 339 339 337 338 338 338 338 337 335 337 337 334 330 329 331 333 334 334 335 337 337 337 338 338 338 335 331 328 329 330 332 335 335 335 334 334 335 336 336 336 336 337 337 336 334 332 330 327 324 324 325 325 325 326 327 327 327 327 328 327 327 326 326 327 327 327
329 329 329 329 331 333 335 335 335 334 334 335 335 335 335 335 336 337 338 338 338 338 337 337 337 337 336 335 335 336 338 335 330 329 330 331 333 334 333 334 334 334 333 334 334 331 328 327 328 329 332 333 334 334 334 335 335 336 336 337 337 337 336 335 334 333 331 327 325 324 325 325 326 328 329 329 330 330 329 327 327 326 326 326 326
329 329 329 329 329 331 333 334 334 334 333 334 334 335 334 334 335 334 335 336 336 337 337 337 338 337 336 336 335 335 336 338 335 330 329 330 332 332 332 331 332 332 331 331 331 330 327 325 326 326 329 330 331 332 334 336 336 337 337 336 337 338 337 335 334 333 331 329 327 325 325 325 326 328 330 330 331 331 330 330 328 327 327 327 327
330 329 329 329 330 331 333 333 334 334 333 333 334 335 335 334 334 334 334 334 334 334 335 335 336 337 337 336 335 335 335 336 336 334 332 330 330 329 330 331 330 330 330 330 329 328 327 326 325 324 326 327 328 330 333 336 337 337 338 337 337 337 336 335 336 335 333 331 329 327 326 325 325 328 330 331 331 332 332 331 330 328 328 328 328
331 330 329 330 331 331 332 333 334 333 333 334 334 335 335 335 335 334 334 334 334 333 332 332 333 334 335 335 335 335 336 335 335 336 335 333 331 329 328 328 329 328 329 329 328 328 327 326 325 324 324 325 326 328 331 334 336 338 338 337 337 336 335 336 336 336 335 333 331 330 328 327 326 327 330 332 332 333 332 331 330 330 329 329 328
332 331 331 331 331 332 332 332 333 333 333 334 335 335 335 335 335 335 334 334 333 333 333 333 333 332 333 333 333 334 335 335 335 335 336 336 335 332 329 327 327 328 328 328 327 327 327 325 325 325 324 324 325 326 328 331 334 336 337 337 336 335 335 336 336 335 336 335 333 330 330 329 328 329 331 333 333 332 332 332 330 330 329 329 328
332 331 331 331 331 331 332 332 333 333 334 336 336 336 336 337 336 336 336 334 334 334 334 334 334 333 333 333 333 333 333 333 334 335 335 336 336 334 331 329 327 327 328 328 327 327 326 325 325 326 325 325 324 324 326 329 333 335 336 336 336 334 334 335 335 336 336 337 335 332 332 331 330 331 332 333 334 333 332 332 331 330 330 329 328
333 332 331 331 331 332 332 333 333 333 335 337 337 338 338 338 338 338 337 336 336 334 334 334 334 334 334 334 334 333 333 332 332 332 333 334 335 336 335 332 330 329 327 328 328 328 328 328 327 326 326 326 326 325 325 327 330 331 330 331 331 331 333 335 336 336 337 338 337 335 334 334 333 333 333 333 333 333 333 332 332 331 330 329 327
333 333 333 332 332 333 333 333 334 334 336 338 337 337 338 338 338 338 337 337 337 337 336 335 335 335 335 335 335 334 333 333 332 331 332 333 334 335 335 335 334 333 331 329 327 328 329 329 328 328 328 328 327 327 327 326 327 326 326 327 329 330 333 335 336 336 337 339 339 338 337 336 336 335 334 333 333 333 333 333 332 331 330 328 327
335 333 333 334 333 333 333 334 335 335 337 337 337 336 337 337 337 337 337 337 338 339 339 338 338 338 337 337 336 336 335 335 335 334 333 332 333 334 335 335 335 336 336 334 332 330 330 329 328 327 328 328 326 327 327 327 327 327 326 327 328 330 333 336 336 336 337 339 339 339 337 337 337 336 334 333 332 332 333 333 332 331 330 329 327
337 335 335 335 334 333 334 334 335 336 337 337 336 336 336 337 339 340 340 340 339 340 340 341 341 340 339 339 338 338 338 337 337 335 334 334 333 333 334 334 334 335 336 337 336 336 335 332 330 329 329 327 325 326 327 328 329 329 328 328 327 329 333 335 334 333 337 339 340 339 338 337 337 337 336 334 333 333 332 332 332 331 329 328 325
338 338 336 336 335 335 336 336 336 336 337 336 336 337 337 338 341 343 344 343 343 342 342 342 342 342 342 342 341 341 341 340 339 338 336 335 335 334 334 335 335 336 337 336 336 338 338 338 336 335 332 330 327 327 326 327 328 329 329 330 328 329 332 333 331 332 336 340 340 339 338 337 337 338 337 335 335 333 332 330 330 329 328 326 321
341 340 338 337 336 336 337 337 336 336 336 335 336 337 337 339 341 344 346 346 346 345 344 344 344 344 344 344 344 343 342 342 341 341 340 338 337 337 338 338 339 339 338 338 337 338 340 342 341 340 337 335 332 329 327 328 329 330 331 331 330 329 329 329 328 331 336 340 340 339 338 337 337 338 337 336 335 334 332 329 327 326 325 322 318
343 341 339 339 338 337 338 338 338 337 336 336 336 337 338 340 342 345 346 348 348 348 347 347 347 347 346 346 346 345 344 344 344 343 342 341 340 340 340 340 340 340 340 340 339 339 342 343 343 341 337 337 336 332 332 333 333 332 332 332 331 330 329 328 328 331 337 340 341 340 339 338 337 337 337 336 336 335 333 328 326 324 323 319 317
345 343 340 340 339 338 339 339 338 338 337 337 337 338 340 341 344 347 349 350 351 351 350 351 350 350 349 349 349 348 348 348 348 347 346 345 345 344 344 343 342 342 342 341 340 340 340 341 341 339 336 337 337 336 336 336 336 335 334 334 334 333 332 329 329 331 335 339 341 340 339 339 338 337 337 336 336 335 332 328 325 323 322 319 316
348 346 344 342 342 341 341 341 341 340 337 338 338 339 341 343 346 350 351 352 353 353 353 353 352 352 352 352 351 351 351 351 351 350 350 349 349 349 348 347 346 345 345 344 344 344 342 342 342 341 339 340 341 341 341 340 339 339 339 338 337 337 335 334 332 332 336 339 341 341 340 339 339 338 337 337 336 335 331 327 324 324 322 320 317
350 348 346 345 343 342 343 343 344 342 340 340 341 341 343 346 350 352 353 354 354 355 354 355 354 354 355 354 354 354 354 353 353 352 353 352 352 352 351 350 350 349 348 348 348 347 346 345 345 345 344 345 345 346 345 345 344 343 341 340 339 338 337 335 333 333 336 339 341 341 340 340 339 339 338 337 336 334 330 326 325 325 324 322 319
351 349 347 347 345 345 345 345 345 345 346 346 347 348 348 349 352 353 354 355 356 356 356 357 357 357 357 357 356 356 356 356 356 355 355 355 354 353 353 353 352 351 351 351 352 351 350 350 349 349 348 347 348 349 348 348 347 346 344 343 342 340 339 337 335 334 336 339 341 342 341 340 339 339 339 337 336 334 329 325 326 326 325 324 320
354 351 349 349 348 346 346 346 346 347 349 351 352 353 353 354 354 355 356 357 357 357 357 357 358 358 358 358 359 359 359 359 358 359 358 357 357 356 355 354 354 353 353 353 353 353 352 352 352 351 351 350 350 349 349 349 349 348 347 346 344 342 341 340 337 337 338 339 340 341 342 340 340 339 339 338 336 333 328 326 327 327 326 325 322
Wind_Speed
9 9 9 8 8 8 9 8 8 8 8 8 8 8 9 9 9 10 11 13 14 13 12 10 8 5 5 6 6 6 7 7 6 6 6 6 4 3 3 3 3 5 6 8 8 7 7 6 6 6 6 5 6 6 6 6 6 6 6 7 6 6 6 5 5 4 4 3 2 1 1 0 0 0 1 1 1 1 1 2 3 3 4 4 5
8 8 8 7 6 7 8 8 7 7 8 7 6 7 8 8 7 9 10 12 14 15 14 12 8 4 5 6 5 4 5 5 4 5 5 6 5 3 3 3 2 3 4 6 7 7 6 6 5 5 5 5 5 5 5 5 5 5 5 6 6 5 5 4 4 4 3 3 2 2 2 1 2 2 2 2 2 2 2 3 4 4 5 5 6
9 7 7 6 5 6 7 7 7 8 8 7 6 7 7 6 6 7 8 10 13 15 15 14 10 5 3 3 5 4 4 4 3 4 4 5 6 4 3 3 2 3 4 5 6 6 6 6 5 5 5 5 4 4 5 4 4 5 5 5 5 5 5 4 4 4 3 3 3 3 3 2 2 3 3 4 4 4 4 4 5 5 6 6 7
9 6 6 5 5 6 6 6 7 7 7 7 6 6 5 5 6 7 8 8 10 13 15 14 11 7 4 3 3 5 6 6 4 3 3 5 7 5 3 3 2 2 2 4 5 5 6 6 6 6 6 5 5 5 4 4 4 4 4 4 4 4 4 4 4 4 4 4 4 4 4 3 3 4 4 4 5 5 5 5 6 6 6 7 8
8 6 6 5 6 7 6 6 6 6 6 6 6 5 4 5 6 6 6 7 8 13 16 15 12 9 5 3 2 4 8 8 6 4 3 5 7 6 3 2 2 1 1 2 4 5 6 6 6 6 6 5 6 5 5 5 5 5 4 4 4 4 4 4 4 4 4 4 4 5 5 5 5 5 5 5 6 6 6 7 7 7 8 8 8
8 7 7 7 7 7 6 6 6 6 6 7 7 6 5 5 6 6 5 7 9 12 15 15 12 10 6 4 4 5 8 10 7 5 4 4 6 6 4 3 3 2 1 1 3 4 5 6 5 5 5 5 5 5 5 5 5 5 4 4 4 4 4 5 5 5 5 5 5 6 6 6 6 6 6 6 7 7 8 8 9 9 9 9 9
9 8 8 8 7 7 6 5 5 6 6 6 6 6 5 4 5 5 5 7 10 11 13 15 13 11 6 4 4 7 9 10 9 6 4 6 7 6 5 5 4 4 3 1 1 3 4 5 5 5 5 5 5 5 4 4 4 4 4 5 5 5 5 5 6 6 6 6 6 7 7 7 7 8 8 8 8 9 10 10 10 10 10 11 10
10 8 8 8 7 6 6 5 4 4 5 5 5 5 5 4 4 5 5 7 9 10 12 15 14 10 5 3 4 6 9 11 10 7 7 9 8 7 7 6 5 4 3 2 1 1 3 4 5 6 6 6 6 5 5 5 5 5 5 6 6 5 5 6 6 7 7 7 7 7 8 8 8 8 9 9 9 10 10 10 11 11 11 11 11
13 10 9 9 7 6 6 6 5 4 4 4 4 5 5 4 4 5 5 6 8 11 13 14 14 10 5 4 5 7 9 11 11 7 7 7 7 6 6 6 6 5 4 3 2 1 1 3 5 6 6 6 5 5 5 5 5 6 5 6 6 6 6 6 6 7 7 8 8 8 9 9 9 9 9 10 10 10 11 11 11 11 11 11 11
15 13 11 10 9 7 7 7 6 5 4 4 4 4 5 4 4 4 6 6 8 10 12 14 14 11 6 4 5 8 9 11 10 6 5 5 5 5 5 6 7 7 5 5 3 2 1 1 3 5 5 5 5 5 5 5 6 6 5 6 5 5 5 6 6 7 8 8 9 9 9 10 10 9 10 11 11 11 11 11 11 11 11 11 11
16 15 13 11 11 10 9 8 7 6 6 5 4 5 5 5 4 4 5 6 7 10 12 14 14 11 7 5 4 8 10 11 8 5 3 3 4 4 4 5 5 6 6 6 4 1 1 1 1 3 4 5 5 5 5 5 5 5 5 5 5 5 5 6 6 7 7 8 8 9 8 9 9 9 9 9 9 9 9 9 9 9 9 9 9
15 15 15 13 12 10 9 9 8 7 6 5 4 5 5 5 4 4 4 5 7 11 13 14 13 11 9 6 5 8 9 8 6 3 3 4 5 3 2 3 4 5 6 7 6 3 2 2 2 3 3 4 5 5 5 5 5 5 5 5 5 6 6 6 6 6 6 6 6 6 6 6 6 6 6 6 6 5 5 5 6 6 6 7 7
15 15 16 14 13 12 10 8 8 8 7 5 5 5 6 5 5 5 4 5 8 12 15 14 13 11 10 8 8 8 8 7 6 4 3 5 5 3 2 1 2 4 6 6 8 6 2 2 2 2 3 4 4 4 5 5 4 4 4 4 5 5 5 5 5 5 5 5 5 4 4 3 4 4 4 4 4 4 4 4 4 4 4 4 5
15 15 15 15 13 13 11 9 8 8 7 7 7 7 6 6 5 5 5 7 10 12 14 13 12 11 10 11 11 11 10 8 7 7 5 6 5 4 4 2 1 1 3 5 7 8 5 2 1 1 2 3 3 3 3 4 4 3 3 3 4 4 4 4 4 3 3 3 3 3 2 2 2 3 3 3 3 4 4 4 4 4 4 4 4
15 15 15 15 14 13 12 10 9 8 8 7 7 8 7 6 6 6 6 9 12 13 12 12 11 10 10 11 12 12 12 11 10 9 8 9 7 6 7 5 3 1 2 3 5 7 6 5 3 1 1 2 2 3 3 3 3 3 3 3 4 4 4 4 3 2 2 1 1 2 2 2 2 3 3 3 4 4 4 4 4 4 4 4 4
15 15 15 15 15 14 12 11 10 9 8 7 8 8 7 7 6 7 8 10 12 13 13 12 12 12 12 11 11 12 13 14 14 12 10 12 11 9 9 8 6 4 3 3 3 5 6 5 5 3 1 1 2 2 3 4 3 2 2 3 3 4 4 4 3 2 2 1 1 1 1 2 2 2 3 3 3 3 4 4 4 4 3 3 4
15 16 15 15 15 14 13 12 11 10 9 8 9 8 8 8 8 8 9 10 12 14 14 14 13 13 12 11 10 10 13 14 14 13 12 13 13 12 11 11 9 6 3 4 4 3 4 4 4 4 3 1 0 1 2 4 4 3 3 2 2 3 4 4 4 4 3 3 2 2 1 1 1 1 2 2 2 3 3 3 3 3 3 3 3
16 16 16 16 16 15 14 13 12 12 10 10 10 10 9 9 9 9 10 10 12 14 14 14 14 13 12 10 7 8 11 13 14 13 11 13 14 13 13 12 11 7 4 5 5 3 3 4 3 5 6 4 1 1 2 3 4 3 3 3 3 3 4 5 5 5 4 3 3 2 2 1 1 1 1 1 1 2 2 2 2 3 3 3 3
17 17 17 17 16 16 15 13 13 13 11 11 11 10 9 9 9 10 10 11 12 14 15 15 14 14 13 11 9 9 10 12 15 14 10 13 14 14 14 13 11 8 6 6 6 4 4 5 4 5 7 6 2 1 2 3 4 4 4 4 4 4 4 5 5 4 3 3 2 2 2 1 1 1 1 1 1 1 2 2 2 3 3 4 4
17 17 18 18 17 17 16 15 14 14 13 12 11 10 10 10 10 10 10 11 12 13 14 14 13 12 13 13 11 11 9 10 15 14 11 13 15 15 14 13 12 9 7 7 7 6 6 7 6 5 7 7 4 2 1 2 3 4 3 4 4 4 4 4 4 3 2 2 2 2 1 1 1 1 1 1 1 2 2 2 3 4 4 5 5
19 17 18 19 19 18 17 17 16 15 14 13 12 11 11 11 11 11 10 10 12 12 13 13 12 10 11 14 13 11 9 10 13 13 11 13 17 19 17 14 13 11 8 8 7 7 8 9 8 6 6 6 4 3 2 1 1 3 3 3 3 4 3 3 2 2 1 1 1 1 1 1 1 1 1 1 1 2 2 3 4 4 5 5 6
21 19 18 19 20 19 18 18 17 16 15 14 13 13 12 12 11 11 10 10 12 13 13 12 12 10 11 15 16 13 12 12 13 12 11 12 15 17 18 16 14 12 10 9 8 8 9 10 9 8 7 6 3 2 3 2 1 3 2 3 3 3 3 3 3 3 2 2 1 1 0 0 1 1 0 1 2 2 3 4 4 5 5 6 6
23 20 19 19 20 20 19 18 17 16 16 15 14 13 12 12 12 11 11 11 11 12 13 13 13 12 12 15 19 18 15 15 14 12 12 14 14 15 17 16 14 13 11 10 9 9 11 11 10 9 8 7 5 3 3 3 1 2 3 4 5 4 4 4 4 4 4 4 4 3 2 2 1 1 1 2 3 4 5 5 6 6 7 7 8
25 22 20 19 19 20 19 19 19 17 17 16 15 14 13 13 12 12 11 11 11 12 13 13 13 13 11 13 19 21 18 15 15 14 13 14 14 13 13 13 14 14 13 12 11 11 12 12 11 10 10 9 7 4 3 2 1 3 4 5 6 6 5 4 4 4 5 6 6 6 5 4 4 3 3 3 4 5 6 6 7 8 8 9 9
26 24 21 20 20 20 20 20 20 18 17 17 16 15 15 14 13 12 12 12 12 12 12 12 13 13 11 11 16 22 21 17 15 16 15 15 14 12 11 10 11 13 14 14 13 12 13 13 12 12 12 12 10 7 5 3 4 5 5 5 6 7 6 5 5 5 6 7 8 8 7 7 6 5 5 5 5 5 6 7 8 9 9 10 10
24 23 22 21 20 20 20 20 20 19 17 17 16 16 16 15 13 12 12 12 12 12 12 12 13 13 12 12 13 18 21 19 18 17 16 17 16 14 13 12 10 10 14 16 15 15 15 13 12 13 14 14 12 10 6 4 5 6 7 7 7 8 8 8 8 7 7 8 9 9 9 9 8 8 7 7 7 7 8 8 9 10 10 11 11
23 22 22 21 21 19 19 19 20 19 18 17 17 17 17 17 15 14 13 12 13 13 12 12 12 12 12 13 13 14 18 19 20 19 17 17 18 16 15 15 13 11 14 16 18 18 17 14 13 14 15 15 13 11 8 6 6 7 8 9 8 9 11 11 10 9 9 9 10 10 10 10 10 10 10 10 9 9 9 9 10 10 11 12 12
23 22 21 21 20 19 18 18 19 19 19 19 18 17 18 18 17 16 15 14 14 14 13 13 12 11 11 12 14 13 15 18 19 20 19 17 18 17 16 16 16 15 15 17 20 20 18 16 16 16 15 15 14 12 11 10 10 10 10 10 10 10 12 12 12 11 11 11 11 11 11 11 11 11 11 11 11 11 11 11 11 11 11 12 13
25 24 22 21 21 20 18 17 18 19 20 20 20 19 19 19 18 17 16 16 15 14 14 13 12 11 10 11 13 14 15 17 19 20 20 18 17 17 16 16 16 18 19 19 21 21 18 16 17 16 15 16 15 14 14 14 12 13 14 14 13 12 13 14 14 14 13 13 13 13 13 12 12 12 12 12 13 12 12 12 12 12 12 13 14
27 26 24 23 23 22 20 18 18 18 20 21 21 20 20 20 20 19 17 17 16 15 15 14 13 13 12 11 13 14 17 18 18 20 21 19 17 17 17 17 17 19 21 22 23 20 17 17 17 16 16 16 17 16 16 15 14 16 18 17 16 15 14 15 15 16 15 15 15 15 14 14 13 13 14 14 13 13 13 13 13 13 13 14 15
29 27 26 25 25 24 22 21 19 19 19 21 22 22 22 22 21 21 19 18 18 17 16 15 14 14 14 12 13 14 18 19 19 20 21 19 18 18 19 20 20 20 21 23 25 21 17 17 16 15 16 17 18 19 18 17 16 19 20 20 18 17 17 17 16 16 17 16 16 16 15 15 14 14 15 15 14 14 14 14 14 14 14 15 16
31 29 27 26 26 25 24 23 22 21 20 20 21 22 23 23 23 22 21 21 20 19 18 18 17 17 16 15 15 14 17 20 21 21 21 20 19 19 20 21 22 22 20 22 26 23 18 18 17 16 17 18 19 21 21 19 18 20 22 21 20 19 19 18 17 17 17 17 17 17 17 16 15 15 16 16 15 14 14 14 14 14 15 16 17
32 31 29 27 26 26 25 24 23 23 23 22 21 22 23 23 23 23 23 23 23 22 21 20 20 20 19 18 17 16 17 21 23 23 22 21 21 21 21 22 22 23 22 23 25 24 21 21 21 19 18 19 20 21 21 20 19 20 22 22 21 20 20 19 18 17 17 17 18 18 17 17 16 17 17 17 16 15 14 14 14 15 16 17 17
33 32 31 29 28 27 26 26 25 25 24 24 24 24 24 24 24 24 24 25 25 24 23 23 23 22 22 21 19 18 18 20 23 26 25 23 23 23 23 23 23 23 23 24 25 25 24 22 22 22 22 22 23 22 21 21 20 20 22 22 21 21 21 19 18 18 17 18 19 19 18 18 18 18 17 17 16 15 15 15 15 16 16 17 17
34 33 32 31 29 29 28 27 27 27 26 26 26 26 25 25 25 25 25 25 25 25 24 24 24 24 24 23 22 20 20 21 23 26 28 27 26 26 25 25 25 24 25 25 25 26 26 23 22 24 25 25 25 24 23 22 21 21 22 22 22 22 22 21 20 19 18 17 18 19 20 20 19 19 18 17 17 16 16 15 16 16 16 17 17
36 34 33 33 31 31 30 30 29 29 29 28 28 28 27 27 26 26 26 26 26 25 25 25 25 25 26 25 24 22 22 23 23 24 27 29 29 29 29 28 28 27 27 27 28 28 28 27 25 24 26 27 27 26 26 25 23 23 23 24 24 24 24 22 21 20 19 18 18 19 21 21 20 20 19 18 17 16 16 16 16 16 16 16 15
38 36 35 35 34 33 32 32 31 31 31 30 29 29 29 28 28 27 28 28 28 27 27 26 26 26 27 27 26 24 24 25 25 25 26 29 30 32 32 32 31 30 30 30 31 31 31 32 29 26 26 28 29 29 28 27 26 26 26 27 27 26 25 24 23 22 20 20 20 20 20 21 21 20 19 18 17 17 17 17 17 17 16 15 14
39 38 38 36 35 35 34 33 33 33 32 31 31 31 30 30 30 29 29 30 30 29 29 28 28 28 28 28 28 27 27 27 26 26 26 27 30 32 34 34 34 34 34 33 33 33 34 34 33 30 29 29 31 31 31 30 29 29 29 29 29 29 28 26 25 24 23 22 21 21 20 21 21 20 19 19 18 18 18 18 18 17 16 14 15
40 40 39 38 37 36 35 35 34 34 34 33 33 32 32 32 32 31 31 31 32 32 31 31 30 30 30 29 29 29 29 29 28 27 27 27 28 30 32 34 35 36 37 37 36 37 37 36 36 34 32 30 31 32 32 31 32 33 32 33 33 32 31 29 27 25 23 23 22 21 21 21 20 21 21 21 20 20 20 20 19 17 15 15 15
41 41 40 40 39 38 37 36 36 35 35 36 35 34 34 34 34 34 34 34 34 33 33 33 33 33 33 32 31 31 31 30 29 29 28 28 28 29 29 30 33 36 38 38 39 39 39 39 38 37 35 33 32 33 33 33 35 36 35 35 36 34 31 30 28 25 24 24 23 23 22 21 21 21 22 22 22 21 22 21 20 17 16 16 17
42 41 41 40 40 39 39 38 38 37 38 38 37 36 35 35 35 35 35 36 36 36 35 35 35 35 35 34 34 33 33 33 32 31 30 29 29 30 29 29 31 33 35 36 38 40 41 41 40 39 38 37 35 34 34 36 38 37 35 35 36 34 31 30 30 27 25 25 25 25 25 23 22 22 23 23 23 22 23 22 21 18 17 17 18
43 42 42 41 41 41 40 40 40 40 40 39 38 37 36 36 36 36 36 37 37 38 38 37 36 36 36 36 36 35 34 34 34 34 33 32 31 31 31 31 31 32 33 34 36 38 40 41 42 40 40 41 39 37 37 37 37 37 36 36 37 35 32 32 31 29 27 26 27 27 27 25 25 25 24 24 23 23 23 23 21 19 18 18 19
45 44 43 43 42 42 41 41 41 41 41 40 39 38 37 37 37 38 38 38 38 39 39 39 38 37 36 36 36 36 36 35 35 35 35 35 34 34 33 33 33 33 34 34 35 36 38 40 41 41 42 43 41 39 39 38 38 38 38 37 37 37 36 34 34 31 27 26 28 29 28 27 27 27 26 25 23 22 23 22 21 20 19 19 19
46 45 45 44 44 43 42 43 42 42 42 41 40 39 39 38 39 39 39 39 39 39 40 40 40 39 38 38 37 37 37 36 35 35 35 36 36 36 36 36 36 36 36 37 37 37 38 39 41 42 43 42 41 40 40 39 38 39 38 38 39 39 38 37 37 34 28 25 27 29 28 26 28 29 28 25 23 22 22 21 21 21 20 19 19
47 46 46 45 45 44 44 44 44 43 42 41 40 40 39 39 38 39 39 40 40 40 40 40 40 40 40 39 39 38 37 36 36 36 36 36 36 37 38 39 39 40 39 39 39 39 39 40 42 43 42 42 41 40 38 37 38 39 39 39 40 41 41 40 38 35 29 26 28 30 29 27 27 29 29 25 23 23 22 22 22 21 20 19 18
48 47 47 46 46 45 45 45 44 43 43 41 40 40 39 38 37 37 38 39 40 40 40 40 40 40 40 40 40 39 38 38 38 37 37 37 37 37 38 40 41 42 42 42 41 41 41 42 44 44 42 42 42 40 38 38 40 40 40 40 39 40 41 39 37 34 31 29 29 30 31 30 27 29 29 25 23 24 24 23 22 20 19 18 16
48 48 47 47 46 46 45 45 44 44 43 41 40 39 38 37 36 36 36 38 39 40 40 40 40 40 40 41 41 41 40 41 40 40 39 38 38 39 40 41 42 42 43 44 43 42 42 43 45 45 44 43 43 41 40 41 42 41 41 40 39 38 38 38 38 38 36 34 31 32 34 33 29 30 30 25 23 25 25 23 22 20 19 17 14
48 48 47 47 47 47 46 45 46 45 43 41 40 39 37 36 35 36 36 37 38 39 39 40 40 41 41 41 42 42 42 42 41 41 41 40 41 42 43 43 44 44 46 45 43 43 43 44 45 46 45 45 45 44 43 43 44 43 43 43 42 39 39 41 43 43 41 38 36 36 37 36 33 33 31 26 25 26 26 25 23 21 19 16 14
46 48 48 48 47 47 46 46 47 46 44 42 41 40 38 37 36 36 37 37 38 39 39 39 40 40 40 40 41 41 42 42 41 41 41 42 43 45 46 46 47 49 50 48 46 45 45 45 47 47 47 47 47 48 47 46 46 45 45 47 46 43 43 46 48 47 45 43 40 38 39 39 36 34 32 28 27 27 27 26 25 22 19 16 15
42 44 45 47 47 47 47 47 47 47 46 44 43 41 40 38 37 37 37 38 39 40 40 40 40 41 41 41 40 41 41 41 40 40 41 42 44 46 47 48 49 52 54 51 48 48 48 47 48 49 49 49 50 50 51 50 49 48 49 52 50 46 46 49 50 49 48 47 44 40 41 41 39 36 33 30 29 30 29 28 26 23 20 18 17
39 39 41 43 45 46 47 47 47 47 46 45 44 43 41 40 39 38 38 39 40 41 40 41 41 41 42 42 41 41 42 41 40 40 41 42 44 46 46 48 51 55 54 51 50 51 50 51 51 51 51 51 51 51 52 53 53 53 53 53 51 50 50 50 50 49 49 51 48 43 42 43 40 38 35 32 31 32 31 30 29 26 23 21 20
Wind_Direction
140 139 127 128 135 131 132 134 127 120 115 116 122 126 127 127 127 131 141 149 150 148 147 145 145 170 186 167 133 110 112 107 91 92 81 75 85 109 133 145 167 175 169 167 169 165 158 156 156 158 156 151 151 147 143 142 141 143 147 153 159 162 167 172 173 175 180 190 202 214 233 248 261 284 17 358 19 19 4 349 342 340 337 337 337
143 138 125 133 145 130 133 136 127 119 115 118 122 121 126 127 121 121 131 147 156 158 157 154 145 156 189 185 174 134 124 134 112 92 68 63 70 82 119 125 155 188 189 179 176 170 162 162 165 165 164 164 166 161 156 155 155 158 160 163 168 170 175 185 192 200 206 217 234 246 254 256 256 249 262 279 286 296 303 310 312 317 320 323 325
152 143 132 144 160 138 136 135 125 120 119 127 125 113 121 123 120 123 126 141 158 164 162 158 150 147 166 181 200 194 164 171 153 107 72 67 69 67 97 110 134 175 198 197 188 177 171 172 176 177 176 178 182 179 173 171 174 176 178 180 182 180 182 192 203 216 220 223 231 240 248 247 252 250 259 273 279 287 292 299 304 310 313 316 318
161 156 150 160 174 157 149 139 128 124 122 131 127 111 116 118 126 133 131 138 155 165 165 161 157 154 149 139 190 213 204 193 173 134 94 79 71 62 79 92 107 160 193 211 206 189 181 182 186 188 188 190 194 196 189 191 199 197 195 196 197 195 194 203 210 223 227 227 235 246 252 252 256 256 259 269 277 285 290 295 301 307 309 311 314
170 167 169 177 183 174 164 148 135 126 124 128 127 122 127 121 128 136 134 141 155 162 164 165 164 157 145 110 145 204 206 199 185 156 118 85 63 53 70 90 90 120 174 225 224 206 192 189 195 199 198 199 200 205 204 208 214 211 210 210 214 215 216 224 229 238 240 242 251 257 264 265 269 271 274 279 282 285 287 291 296 301 303 305 309
182 180 182 189 188 176 161 152 144 134 130 131 134 138 135 118 124 132 127 139 155 160 164 170 166 154 132 85 111 164 190 201 193 165 131 82 52 48 63 74 78 87 101 219 233 220 205 195 199 207 208 209 208 212 216 220 224 221 224 225 226 229 233 242 243 248 252 256 262 265 271 273 277 280 281 283 285 288 289 291 293 294 296 299 302
193 189 189 194 191 175 156 149 151 144 138 142 143 140 132 116 121 131 123 132 150 158 165 170 163 150 131 88 116 150 172 192 188 160 119 75 60 65 76 73 74 71 72 87 219 217 212 201 198 205 210 211 211 214 219 225 230 230 235 238 238 240 243 250 252 256 261 265 269 272 275 275 278 280 280 281 282 287 290 292 293 293 295 296 298
203 197 199 202 194 182 165 150 157 155 143 148 146 138 136 126 132 143 135 134 147 154 161 168 164 149 127 81 110 138 149 169 173 146 103 81 76 84 88 86 88 79 73 73 70 207 213 209 202 203 206 210 209 211 216 223 232 235 240 245 249 251 252 257 260 264 266 267 270 274 277 278 280 282 283 283 284 286 288 290 293 296 297 297 299
213 206 208 213 206 192 176 158 164 169 158 162 154 148 149 137 144 152 142 138 146 154 161 165 163 151 120 85 109 122 133 151 156 133 99 89 85 89 87 83 86 81 79 77 65 54 237 222 212 206 201 204 208 210 218 224 232 237 242 249 254 257 259 263 264 267 269 269 270 272 274 278 280 282 283 283 283 284 286 288 291 293 295 296 298
217 217 214 214 211 200 187 173 174 185 184 186 174 165 168 149 150 153 139 142 145 151 160 161 160 153 118 79 106 119 127 143 146 126 105 103 104 99 81 76 77 71 72 71 57 49 37 234 221 215 203 196 197 203 216 226 232 237 241 246 251 255 260 264 265 267 269 270 272 272 272 273 275 277 280 283 285 287 288 289 289 289 292 295 297
213 217 216 213 212 204 196 188 184 191 192 192 188 181 180 158 155 164 143 147 148 148 158 160 159 157 130 92 114 134 133 140 144 128 112 124 137 120 78 80 80 63 63 56 34 24 133 112 175 207 200 190 190 197 208 220 227 234 236 236 241 244 248 256 264 268 268 269 273 277 279 280 280 282 285 290 293 294 295 294 292 293 296 299 302
209 211 214 215 214 211 205 196 187 191 197 196 196 190 180 164 164 176 159 157 156 153 161 164 163 165 151 128 134 149 145 143 152 148 131 158 166 150 93 94 89 63 62 54 35 34 153 143 132 153 175 182 190 196 202 213 218 225 229 226 227 231 237 247 256 262 266 270 276 285 293 296 300 301 303 310 312 314 315 312 310 310 311 311 311
211 207 212 217 216 215 213 206 194 192 199 197 196 196 183 175 175 176 170 168 165 160 163 168 170 173 169 159 149 152 161 163 176 184 166 175 177 176 175 134 100 69 67 64 47 42 86 143 151 158 169 176 183 190 194 198 196 202 215 215 219 223 227 239 250 260 268 278 288 302 313 314 318 324 331 340 343 346 345 344 342 338 337 334 328
214 207 211 218 219 217 216 215 207 196 198 198 196 194 186 180 174 171 167 165 169 167 162 163 165 167 167 171 167 160 167 180 201 205 197 201 204 208 208 203 198 52 54 66 53 44 58 85 86 194 194 186 187 191 189 180 174 180 200 206 212 215 215 225 242 255 266 284 306 329 346 356 359 3 7 9 11 13 13 11 8 4 1 356 346
214 209 210 218 222 221 218 220 215 202 201 202 199 193 190 188 175 173 172 168 172 172 166 161 162 169 172 177 181 178 178 186 202 208 211 219 225 226 221 219 229 272 353 27 51 47 48 59 64 72 195 209 214 207 197 184 179 193 205 203 200 200 206 216 229 240 252 292 343 6 15 23 27 30 29 27 28 28 28 26 23 22 17 9 2
214 212 211 216 223 222 220 218 213 209 206 204 205 197 192 196 189 184 181 177 178 174 170 169 169 177 179 176 184 193 196 195 198 203 215 225 230 231 225 223 234 256 320 342 21 43 32 38 58 59 57 239 254 236 217 203 202 217 216 207 196 189 192 194 189 179 167 138 109 73 54 45 38 34 30 31 32 29 27 25 23 22 20 15 9
215 216 213 214 220 222 220 215 212 214 211 206 206 199 194 197 198 196 186 182 184 180 177 176 177 183 182 173 177 196 206 202 199 202 213 227 233 231 228 231 242 259 310 325 328 2 8 21 48 37 21 26 52 217 211 203 209 226 223 215 199 176 164 160 154 150 145 134 123 108 90 69 48 37 28 25 25 23 22 18 14 10 8 6 3
216 217 215 214 218 221 220 215 213 214 210 205 202 199 200 199 201 202 191 181 187 192 189 183 184 192 193 185 189 206 207 202 202 205 212 225 230 228 229 235 245 262 293 302 302 315 345 6 21 11 11 21 60 119 154 182 193 204 205 199 191 171 154 150 149 144 135 124 120 113 110 108 100 85 59 55 45 39 31 16 8 1 356 353 349
218 218 218 216 216 220 219 216 214 213 210 206 201 201 203 204 206 206 196 186 192 198 195 189 188 197 202 202 217 232 222 209 206 204 204 212 220 223 224 230 242 260 281 290 292 293 319 334 326 344 8 20 25 104 134 143 157 172 183 186 181 172 161 157 153 144 129 120 120 121 124 120 108 94 87 93 83 65 46 28 15 6 359 353 348
220 220 220 218 215 217 218 217 214 212 211 207 203 202 202 204 204 202 201 196 196 199 197 197 197 199 200 201 213 229 226 210 203 203 206 206 207 210 214 225 239 252 275 290 292 286 298 312 308 327 5 23 38 43 80 122 147 160 174 184 180 176 171 167 161 148 136 131 125 121 118 103 90 93 96 93 68 43 28 17 10 6 2 357 352
224 222 221 218 215 214 216 217 214 212 212 207 201 201 204 206 204 203 207 205 200 200 200 202 202 199 200 200 205 210 204 195 198 205 218 213 200 200 206 215 225 236 260 275 272 269 286 301 299 308 347 17 54 58 34 38 189 187 191 203 198 194 193 190 191 186 181 166 138 116 104 90 106 111 94 67 22 9 359 353 353 353 352 351 351
228 225 222 219 216 215 216 217 215 213 212 208 202 203 205 209 211 210 211 209 205 206 208 206 201 201 208 209 207 205 198 195 201 205 213 215 205 202 208 215 222 230 243 251 251 259 275 288 289 291 317 344 15 29 14 10 262 232 243 242 232 229 230 231 233 237 246 248 254 237 191 165 153 142 104 4 341 338 337 337 340 341 341 342 343
231 227 221 220 218 216 216 217 217 214 213 210 207 208 211 212 215 214 209 208 210 215 219 216 210 209 214 214 208 206 206 205 207 206 202 205 207 206 210 221 232 238 243 247 249 255 263 274 279 279 293 319 333 317 332 10 326 257 288 275 258 253 252 255 259 265 272 278 280 277 267 256 241 250 284 316 328 330 331 333 337 338 339 339 338
231 227 221 220 220 217 216 217 218 216 213 213 210 210 216 215 214 213 209 209 214 221 225 224 222 219 219 216 207 206 211 215 216 217 210 206 212 213 211 220 231 235 243 249 249 253 260 269 275 274 281 298 315 311 301 327 305 295 313 294 259 247 248 259 269 278 284 287 288 286 280 271 264 266 279 298 312 322 326 327 330 333 333 334 333
226 224 218 218 220 218 216 216 218 217 214 214 212 211 217 219 217 215 213 214 219 225 228 230 231 227 223 220 212 208 211 217 223 225 218 210 213 218 214 220 231 233 240 247 251 256 259 265 268 268 273 280 291 297 293 288 285 292 312 308 269 252 257 264 266 276 283 286 288 286 283 278 273 272 274 284 297 309 317 319 322 324 325 325 325
221 220 217 218 221 220 218 217 219 220 217 215 214 213 218 221 222 223 221 220 221 225 228 231 234 231 226 225 224 217 214 218 226 227 221 211 211 217 220 225 236 239 243 246 249 252 257 263 264 261 265 273 278 282 284 285 285 290 298 300 286 276 279 276 268 269 275 280 284 283 282 280 277 277 277 281 288 296 305 312 314 316 318 319 320
220 221 220 219 220 222 221 218 217 220 220 218 216 217 220 222 223 227 228 225 223 224 226 230 234 235 230 227 232 231 222 221 224 225 223 216 214 220 225 228 234 240 243 242 245 253 261 267 267 262 263 268 270 267 269 275 276 280 285 289 289 285 283 280 274 270 270 271 273 274 275 275 274 274 275 277 281 286 293 300 304 309 312 314 315
223 223 222 221 222 223 223 221 218 218 220 221 221 222 223 224 225 228 230 229 226 225 225 229 234 237 238 232 230 233 225 216 216 220 223 219 216 218 222 229 237 242 240 238 244 253 259 259 259 262 262 261 259 257 260 266 268 270 273 280 287 283 279 278 276 272 269 267 265 265 266 266 267 268 269 272 274 278 283 288 293 297 302 306 308
227 226 225 225 225 227 228 227 223 220 219 221 222 224 226 228 229 231 233 232 232 231 228 229 232 234 241 237 229 229 224 212 208 216 222 220 220 221 221 226 238 245 244 243 248 253 255 254 254 257 258 253 251 253 256 260 264 267 269 274 279 281 277 273 272 271 268 265 262 261 260 259 260 261 263 267 269 273 277 280 285 288 293 298 301
231 230 230 228 229 231 231 230 229 225 222 222 222 223 226 229 230 233 235 236 237 237 233 232 231 231 236 239 232 225 223 218 210 212 217 218 221 227 228 229 235 243 247 251 256 258 255 253 253 255 257 252 248 251 255 258 261 263 266 270 274 280 280 273 269 269 267 264 261 257 254 253 254 256 258 261 265 269 272 275 280 284 288 292 296
232 232 233 231 231 232 231 229 229 227 225 223 223 224 225 228 230 232 234 236 237 238 237 236 233 232 232 236 237 228 224 225 216 210 214 219 221 225 231 235 238 241 245 251 257 258 254 255 257 258 260 257 252 253 256 258 258 258 262 268 272 277 280 275 270 268 266 263 260 256 252 251 252 253 255 258 262 265 269 273 278 282 286 289 292
232 232 233 233 233 234 232 230 228 227 226 223 223 223 224 226 228 232 235 236 237 237 237 238 237 237 236 235 238 234 228 229 224 217 217 222 224 224 228 235 241 244 245 245 250 255 256 257 260 258 257 256 252 252 256 258 257 255 258 264 268 273 276 273 270 269 266 261 257 255 251 251 252 254 255 257 259 263 268 273 278 281 285 287 290
232 232 233 233 233 234 234 233 231 230 229 226 224 222 222 224 227 231 235 237 239 239 239 240 240 241 243 239 237 236 232 232 232 229 226 225 227 228 229 233 238 244 246 245 249 256 259 258 259 257 253 250 249 250 254 257 256 254 256 260 264 268 272 272 271 271 267 260 256 254 252 251 253 253 254 253 256 263 268 272 278 281 284 286 288
232 233 233 233 233 234 234 234 234 232 232 230 229 226 224 224 225 229 233 236 239 241 241 242 243 244 246 245 241 236 233 233 234 235 235 233 231 233 235 237 238 241 245 248 251 257 261 260 258 258 255 252 252 252 254 258 258 256 257 261 263 267 270 271 272 273 269 262 257 256 254 253 253 252 252 252 256 263 267 270 275 280 282 282 283
233 234 234 234 234 234 235 235 234 233 233 233 232 232 230 228 227 228 232 235 239 241 242 243 244 245 247 248 247 241 236 235 234 235 237 238 237 238 240 242 244 245 246 249 252 256 261 262 259 257 257 257 257 257 258 259 259 256 257 260 263 265 267 268 272 274 272 265 260 258 257 255 253 251 251 254 257 261 265 268 273 277 278 280 281
234 235 235 235 235 235 235 236 235 235 235 234 234 235 235 235 233 232 233 236 239 242 244 245 246 247 248 249 250 247 243 240 237 236 236 238 240 242 243 244 247 249 250 251 253 256 260 262 261 258 257 258 259 259 258 257 255 253 254 257 259 262 265 269 271 273 272 268 262 259 257 255 253 251 251 254 256 258 263 267 270 273 275 278 278
235 235 236 236 236 236 236 236 237 237 237 237 237 237 238 238 238 237 236 237 240 243 246 247 247 248 249 251 252 252 250 248 244 241 239 240 242 244 246 247 248 249 250 251 254 256 258 261 262 259 256 256 257 258 257 255 253 252 252 254 256 260 265 268 270 271 271 268 264 260 256 254 252 250 249 250 252 257 262 266 268 270 273 275 275
235 236 236 236 237 237 238 238 239 240 240 240 240 241 241 241 241 241 240 239 241 243 246 247 248 248 249 252 253 254 253 253 252 250 248 246 245 245 247 247 249 250 251 251 252 254 257 260 262 261 257 254 255 256 256 255 255 254 254 255 258 261 263 265 266 268 269 267 264 260 255 252 251 251 249 249 252 257 262 265 268 269 271 272 274
234 235 236 237 238 239 239 240 241 242 242 242 243 243 243 244 244 245 244 243 243 243 245 247 247 248 249 251 252 254 255 256 256 256 255 254 252 251 250 249 249 251 252 254 254 254 256 258 260 260 259 255 253 254 255 255 255 256 256 256 258 260 261 263 264 266 268 267 263 256 252 250 251 253 253 252 253 256 260 264 267 268 268 271 276
235 236 237 238 239 240 241 242 242 243 244 244 244 245 245 245 246 247 247 247 247 246 247 248 248 249 249 250 251 252 255 257 258 259 258 258 257 256 256 255 252 252 253 255 257 257 258 258 258 260 260 257 253 252 251 250 250 253 255 256 258 260 261 263 265 265 267 267 263 256 252 250 251 254 255 256 256 257 260 264 266 266 267 271 278
237 237 238 239 241 242 243 243 243 243 243 244 245 246 246 246 247 248 249 250 250 250 251 251 252 252 252 252 252 253 255 256 258 260 260 260 259 259 260 260 258 256 256 256 257 258 258 258 259 259 259 258 255 251 249 248 251 255 258 257 259 262 262 262 264 264 264 265 264 259 255 253 253 255 256 257 258 258 260 263 264 265 267 271 278
238 238 238 240 241 242 244 244 244 243 243 244 246 247 248 248 248 250 251 252 253 253 253 254 255 256 256 256 256 256 257 258 259 259 260 260 260 260 261 262 261 260 259 259 259 259 259 259 260 260 259 260 260 256 253 254 256 258 257 255 258 261 260 258 260 261 261 261 261 259 258 255 253 254 255 256 257 257 258 260 261 263 265 270 275
239 239 239 240 241 242 244 244 245 245 246 247 248 249 250 250 250 250 252 253 255 255 256 257 258 259 260 260 260 260 260 260 260 259 259 259 260 260 260 261 261 261 261 261 261 261 260 261 262 262 261 262 265 264 262 261 259 258 258 257 258 257 255 254 257 259 260 259 258 259 259 256 253 252 253 253 254 254 255 257 259 261 264 269 271
239 240 240 241 242 242 243 244 245 247 248 250 251 252 252 252 251 251 252 254 256 257 258 259 260 262 262 262 263 263 263 263 263 262 261 260 260 261 261 261 262 262 262 262 262 262 262 263 264 264 263 264 266 266 265 265 263 261 260 258 257 256 254 254 256 258 259 258 256 257 258 255 252 251 251 250 250 250 251 254 255 258 263 266 264
238 240 241 242 242 243 243 245 246 248 250 251 252 253 254 254 253 252 253 254 256 258 259 260 261 263 264 264 264 264 265 266 266 266 265 264 264 263 263 263 263 262 262 262 263 263 263 265 265 266 266 267 267 267 267 267 266 264 262 258 257 256 254 254 256 259 261 257 252 253 255 252 249 249 250 249 248 247 249 252 255 258 260 260 258
237 239 241 242 243 244 244 245 247 249 251 253 253 254 255 255 255 254 254 255 257 259 260 261 262 264 264 265 265 266 267 267 267 268 268 268 268 267 266 265 264 264 264 263 262 262 261 262 263 265 267 267 267 270 270 268 267 266 264 262 260 258 258 259 262 263 261 255 251 251 253 251 246 247 249 249 247 247 249 252 256 256 255 253 254
238 239 241 242 243 244 245 246 247 250 252 254 255 255 256 256 256 255 255 256 257 258 260 261 262 264 265 265 266 267 268 268 269 270 270 271 271 271 270 269 268 268 267 266 265 264 263 263 263 266 270 269 270 272 272 269 269 269 269 269 268 266 266 265 263 259 254 250 247 247 249 250 246 245 248 248 247 247 249 251 252 250 249 250 253
239 240 241 242 243 245 246 247 247 249 252 254 255 256 257 257 256 255 255 256 256 258 259 261 262 264 265 265 266 267 268 269 270 271 271 271 271 271 271 271 272 271 271 270 269 268 268 267 267 269 272 272 272 273 272 270 270 271 271 270 266 263 263 261 257 254 250 246 242 241 244 247 246 245 246 246 245 245 246 248 247 245 245 246 248
239 240 241 242 244 245 247 247 248 249 252 253 254 256 258 257 256 255 255 255 256 257 259 260 262 263 265 266 267 269 270 271 271 272 272 271 270 270 270 272 272 273 273 272 270 270 271 271 270 271 272 273 272 271 271 269 268 269 268 265 261 259 258 256 254 253 250 247 242 238 240 244 246 246 246 245 244 243 244 245 243 241 242 241 244
242 242 243 243 244 246 247 248 250 251 252 252 253 254 255 255 255 256 256 257 258 259 260 261 262 263 264 265 267 268 270 272 273 274 273 272 271 270 270 272 272 273 273 271 271 273 273 272 271 271 271 272 270 269 269 268 266 265 262 261 261 260 257 255 254 254 253 250 246 240 240 244 246 246 245 243 241 242 242 242 240 239 238 237 240
245 245 245 245 246 247 248 249 250 252 252 253 253 253 253 253 253 253 254 255 256 258 260 262 263 264 265 267 268 269 270 272 273 273 273 271 271 271 271 271 272 273 274 273 273 275 275 274 274 273 273 273 272 270 270 268 266 263 260 260 260 258 255 255 255 252 251 252 251 244 240 244 247 245 242 238 237 238 238 237 237 239 239 237 239